This is the latest recevied weather packets stored in our database for station/object N8TWM-13. If no packets are shown the sender has not sent any weather packets the latest 10 day(s).
| Time | Temp. | Humidity | Pressure | Rain* | Wind** | Luminosity | Snow |
|---|---|---|---|---|---|---|---|
| 1777699584 | 2.78° C | 94% | 1016.3 hPa | 0 mm | - | 0 W/m² | - |
| 1777699281 | 2.78° C | 94% | 1016.2 hPa | 0 mm | - | 0 W/m² | - |
| 1777698980 | 2.78° C | 94% | 1016.1 hPa | 0 mm | - | 0 W/m² | - |
| 1777698677 | 2.78° C | 94% | 1016.3 hPa | 0 mm | - | 0 W/m² | - |
| 1777698373 | 2.78° C | 94% | 1016.3 hPa | 0 mm | - | 0 W/m² | - |
| 1777698070 | 3.33° C | 94% | 1016.2 hPa | 0 mm | - | 0 W/m² | - |
| 1777697766 | 3.33° C | 94% | 1016.3 hPa | 0 mm | - | 0 W/m² | - |
| 1777697464 | 2.78° C | 93% | 1016.2 hPa | 0 mm | - | 0 W/m² | - |
| 1777697160 | 3.33° C | 93% | 1016 hPa | 0 mm | - | 0 W/m² | - |
| 1777696857 | 3.33° C | 93% | 1016.3 hPa | 0 mm | - | 0 W/m² | - |
| 1777696555 | 3.33° C | 93% | 1016.3 hPa | 0 mm | - | 0 W/m² | - |
| 1777696250 | 3.33° C | 93% | 1016 hPa | 0 mm | - | 0 W/m² | - |
| 1777695945 | 3.33° C | 92% | 1016.3 hPa | 0 mm | - | 0 W/m² | - |
| 1777695643 | 3.89° C | 92% | 1016.3 hPa | 1.78 mm | - | 0 W/m² | - |
| 1777695341 | 3.89° C | 92% | 1016.2 hPa | 1.78 mm | - | 0 W/m² | - |
| 1777695038 | 3.89° C | 91% | 1016.5 hPa | 0 mm | - | 0 W/m² | - |
| 1777694734 | 3.89° C | 91% | 1016.5 hPa | 0 mm | - | 0 W/m² | - |
| 1777694432 | 3.89° C | 91% | 1016.9 hPa | 0 mm | - | 0 W/m² | - |
| 1777694127 | 3.89° C | 91% | 1016.5 hPa | 3.05 mm | - | 0 W/m² | - |
| 1777693825 | 3.89° C | 91% | 1016.4 hPa | 7.11 mm | - | 0 W/m² | - |
| 1777693523 | 3.89° C | 91% | 1016.9 hPa | 4.32 mm | - | 0 W/m² | - |
| 1777693221 | 3.89° C | 91% | 1016.9 hPa | 0 mm | - | 0 W/m² | - |
| 1777692919 | 3.89° C | 91% | 1016.8 hPa | 0 mm | - | 0 W/m² | - |
| 1777692616 | 3.89° C | 91% | 1016.4 hPa | 0 mm | - | 0 W/m² | - |
| 1777692311 | 3.89° C | 91% | 1016.6 hPa | 0 mm | - | 0 W/m² | - |
* Rain latest hour (hover to see other rain measurements)
** Current wind speed in m/s (hover to see current wind gust speed)